COSMOS 2456 (730)

Last updated on Thu Jul 03 2025 00:03:17 GMT+0000 (Coordinated Universal Time)

1 36111U 09070A 25183.47686461 -.00000048 00000+0 00000+0 0 9990 2 36111 64.8048 82.9207 0004135 330.7992 198.1300 2.13103796120971
UTC large
Height (km)
Speed (km/s)
/
Latitude / Longitude
Inclination (degrees)
Orbital Period (minutes)
Azimuth
Elevation
Range (km)
Doppler Factor

Next 0 passes for location: London (51.5072 / 0.1276)

Sorry there are no passes over London.